• Join FlightAware (Why Join?)
  • Login
  • US Flag 
08:28PM EST


 

Airport Tracker/Info


-or-


 

Live Flight TrackerFlight Track Log ✈ SKW5631 ✈ 27-Jul-2013 ✈ KSFO - KBUR

Flight Track Log - Related Links

Times and Time Zones

All times are in EDT time to prevent confusion due to time zone crossing. See the SKW5631 flight status page for this flight to view local times or setup timezone preferences in your user account.

Time Position Orientation Groundspeed Altitude Reporting Facility
EDT Latitude Longitude Course Direction KTS MPH feet Rate Location/Type
11:31PM 37.6333 -122.3667 130° Southeast 162 186 1,000  Level Northern Cal TRACON
11:32PM 37.6833 -122.3833 345° North 212 244 3,100 2,100 Climbing Northern Cal TRACON
11:33PM 37.6500 -122.4333 230° Southwest 262 302 5,200 2,250 Climbing Northern Cal TRACON
11:34PM 37.4347 -122.3707 113° Southeast  Level FlightAware Approximate
11:34PM 37.5667 -122.4500 189° South 282 325 7,600  Level Northern Cal TRACON
11:35PM 37.3599 -122.2385 136° Southeast  Level FlightAware Approximate
11:35PM 37.4822 -122.3872 149° Southeast 286 329 10,600  Level Oakland Center
11:36PM 37.2726 -122.1172 130° Southeast  Level FlightAware Approximate
11:36PM 37.4181 -122.3169 139° Southeast 301 346 12,400  Level Oakland Center
11:37PM 37.3492 -122.2422 139° Southeast 323 372 14,300 1,918 Climbing Oakland Center
11:38PM 37.2792 -122.1650 139° Southeast 334 384 16,300 1,820 Climbing Oakland Center
11:39PM 37.2078 -122.0883 139° Southeast 339 390 18,000 1,574 Climbing Oakland Center
11:40PM 37.1353 -122.0092 139° Southeast 346 398 19,500 1,377 Climbing Oakland Center
11:41PM 37.0611 -121.9281 139° Southeast 354 407 20,800 1,279 Climbing Oakland Center
11:42PM 36.9856 -121.8461 139° Southeast 361 415 22,100 1,240 Climbing Oakland Center
11:43PM 36.9053 -121.7658 141° Southeast 368 423 23,300 1,041 Climbing Oakland Center
11:44PM 36.8264 -121.6794 139° Southeast 375 432 24,200 1,033 Climbing Oakland Center
11:45PM 36.7406 -121.5886 140° Southeast 384 442 25,400 1,033 Climbing Oakland Center
11:46PM 36.6603 -121.5000 138° Southeast 385 443 26,300 787 Climbing Oakland Center
11:47PM 36.5761 -121.4122 140° Southeast 393 452 27,000 344 Climbing Oakland Center
11:48PM 36.4906 -121.3203 139° Southeast 408 470 27,000  Level Oakland Center
11:49PM 36.4003 -121.2242 139° Southeast 425 489 27,000  Level Oakland Center
11:50PM 36.2900 -121.1061 139° Southeast 435 501 27,000  Level Oakland Center
11:51PM 36.1972 -121.0078 139° Southeast 439 505 27,000  Level Oakland Center
11:52PM 36.1036 -120.9094 140° Southeast 441 507 27,000  Level Oakland Center
11:53PM 36.0106 -120.8114 140° Southeast 439 505 27,000  Level Oakland Center
11:54PM 35.9167 -120.7133 140° Southeast 441 507 27,000  Level Oakland Center
11:55PM 35.8228 -120.6161 140° Southeast 440 506 27,000  Level Oakland Center
11:57PM 35.7286 -120.5186 140° Southeast 442 509 27,000  Level Oakland Center
11:58PM 35.6347 -120.4208 140° Southeast 442 509 27,000  Level Oakland Center
11:59PM 35.5394 -120.3228 140° Southeast 442 509 27,000 -295 Level Oakland Center
12:00AM 35.4414 -120.2208 140° Southeast 437 503 26,400 -787 Descending Oakland Center
12:01AM 35.3464 -120.1225 140° Southeast 443 510 25,400 -984 Descending Oakland Center
12:02AM 35.2492 -120.0247 141° Southeast 444 511 24,400 -1,033 Descending Oakland Center
12:03AM 35.1536 -119.9281 140° Southeast 446 513 23,300 -992 Descending Oakland Center
12:04AM 35.0625 -119.8297 139° Southeast 440 506 22,400 -942 Descending Oakland Center
12:05AM 34.9836 -119.7194 131° Southeast 435 501 21,400 -1,230 Descending Oakland Center
12:06AM 34.9039 -119.6108 132° Southeast 433 498 19,900 -1,574 Descending Oakland Center
12:07AM 34.8289 -119.5106 132° Southeast 416 479 18,200 -1,672 Descending Oakland Center
12:08AM 34.7597 -119.4169 132° Southeast 382 440 16,500 -1,574 Descending Oakland Center
12:09AM 34.6925 -119.3289 133° Southeast 363 418 15,000 -1,475 Descending Oakland Center
12:10AM 34.6286 -119.2431 132° Southeast 349 402 13,500 -1,551 Descending Oakland Center
12:11AM 34.5328 -119.1156 132° Southeast 330 380 11,200 -1,020 Descending Los Angeles Center
12:12AM 34.4750 -119.0394 133° Southeast 298 343 11,000 -98 Descending Los Angeles Center
12:13AM 34.4186 -118.9639 132° Southeast 299 344 11,000 -732 Level Los Angeles Center
12:14AM 34.3639 -118.8914 132° Southeast 290 334 9,500 -1,721 Descending Los Angeles Center
12:15AM 34.2942 -118.8408 149° Southeast 288 331 7,500 -1,721 Descending Los Angeles Center
12:16AM 34.2289 -118.7894 147° Southeast 280 322 6,000 -787 Descending Los Angeles Center
12:17AM 34.2147 -118.7103 102° East 250 288 5,900 -738 Descending Los Angeles Center
12:18AM 34.2031 -118.6319 100° East 242 278 4,500 -1,317 Descending Los Angeles Center
12:19AM 34.2014 -118.5453 91° East 224 258 3,200 -878 Descending Los Angeles Center
12:20AM 34.2003 -118.4850 91° East 193 222 2,700 -639 Descending Los Angeles Center
12:21AM 34.1997 -118.4350 91° East 170 196 1,900 -639 Descending Los Angeles Center
12:22AM 34.1986 -118.3967 92° East 156 180 1,400 -590 Descending Los Angeles Center
12:23AM 34.1992 -118.3531 89° East 144 166 700 -689 Descending Los Angeles Center
12:25AM 34.2000 -118.3500 North  Level FlightAware Approximate